CDT,Max TemperatureF,Mean TemperatureF,Min TemperatureF,Max Dew PointF,MeanDew PointF,Min DewpointF,Max Humidity, Mean Humidity, Min Humidity, Max Sea Level PressureIn, Mean Sea Level PressureIn, Min Sea Level PressureIn, Max VisibilityMiles, Mean VisibilityMiles, Min VisibilityMiles, Max Wind SpeedMPH, Mean Wind SpeedMPH, Max Gust SpeedMPH,PrecipitationIn, CloudCover, Events, WindDirDegrees
2013-5-1,70,67,63,66,64,62,100,94,87,29.99,29.93,29.88,10,8,2,17,8,23,0.15,7,Rain,61
2013-5-2,68,59,50,63,61,51,100,91,81,30.09,30.03,29.98,10,7,2,17,8,22,0.04,8,Rain,15
2013-5-3,59,49,38,49,40,33,100,70,40,30.11,30.06,30.01,10,8,4,20,8,25,0.13,7,Rain,307
2013-5-4,64,50,36,39,36,33,100,68,36,29.99,29.93,29.88,10,10,10,17,6,24,T,3,,290
2013-5-5,65,51,37,46,40,36,100,70,39,30.07,30.01,29.96,10,10,10,16,7,28,0.00,1,,302
2013-5-6,76,61,45,55,50,44,100,73,46,30.04,30.00,29.94,10,10,10,17,5,22,0.00,1,,310
2013-5-7,80,64,48,60,53,46,100,71,42,30.07,30.02,29.99,10,10,7,10,2,14,0.00,0,,332
2013-5-8,84,68,52,61,57,51,100,70,40,30.08,30.02,29.98,10,10,9,14,4,17,0.00,1,,162
2013-5-9,77,68,59,70,65,59,93,81,68,30.07,29.99,29.84,10,9,6,22,6,29,0.03,5,Rain-Thunderstorm,189
2013-5-10,81,72,62,70,65,62,100,81,62,29.99,29.93,29.86,10,8,2,20,4,26,0.02,4,Rain-Thunderstorm,282
2013-5-11,78,66,54,63,59,53,100,72,43,30.10,30.04,29.96,10,8,0,14,5,18,0.00,2,Fog,337
2013-5-12,74,62,50,53,44,38,93,61,29,30.26,30.19,30.11,10,10,10,17,5,28,0.00,0,,18
2013-5-13,80,63,45,53,48,44,100,66,32,30.29,30.21,30.15,10,10,10,15,4,22,0.00,0,,200
2013-5-14,86,69,52,57,52,48,93,62,31,30.21,30.14,30.07,10,10,10,18,7,26,0.00,0,,204
2013-5-15,82,70,58,64,58,49,100,70,39,30.13,30.07,29.97,10,10,6,18,7,25,T,3,Rain,183
2013-5-16,74,69,63,70,67,59,100,87,73,29.95,29.87,29.75,10,8,0,21,6,25,1.32,7,Fog-Rain-Thunderstorm,153
2013-5-17,82,75,67,74,69,66,100,85,69,29.96,29.90,29.84,10,8,5,12,5,14,T,7,Rain-Thunderstorm,171
2013-5-18,88,79,69,73,71,68,100,80,59,30.00,29.94,29.89,10,7,2,15,7,22,0.00,4,,175
2013-5-19,88,79,69,70,69,68,97,76,55,29.95,29.90,29.81,10,9,5,18,10,25,0.00,2,,167
2013-5-20,89,81,72,72,71,69,93,76,59,29.93,29.87,29.79,10,10,8,22,10,29,0.00,4,,165
2013-5-21,86,74,62,72,66,61,100,81,61,29.94,29.85,29.69,10,8,1,33,10,49,1.30,7,Rain-Thunderstorm,89
2013-5-22,81,72,62,69,63,62,100,77,54,29.96,29.89,29.78,10,10,9,13,2,16,0.00,5,,175
2013-5-23,86,73,59,72,68,59,100,79,57,30.08,30.01,29.95,10,8,0,9,2,12,0.00,3,Fog,230
2013-5-24,80,72,64,69,64,60,97,78,58,30.25,30.17,30.06,10,10,7,18,8,23,0.00,2,,49
2013-5-25,84,73,62,69,61,55,97,74,51,30.25,30.18,30.12,10,10,9,14,5,18,0.00,2,,103
2013-5-26,85,77,68,71,68,63,90,76,61,30.15,30.11,30.06,10,10,10,16,5,22,T,3,Rain-Thunderstorm,160
2013-5-27,86,76,66,70,66,63,93,72,51,30.08,30.02,29.93,10,10,8,18,8,25,0.00,2,,170
2013-5-28,86,77,68,69,67,65,97,74,51,29.99,29.95,29.89,10,10,6,17,9,24,0.00,3,,161
2013-5-29,87,78,69,69,67,66,97,74,51,29.98,29.92,29.85,10,10,9,18,9,23,0.00,1,,146
2013-5-30,84,78,72,75,71,69,94,82,69,29.96,29.89,29.81,10,10,4,24,9,32,0.09,5,Rain-Thunderstorm,149
2013-5-31,89,81,73,75,73,72,100,82,63,29.94,29.89,29.78,10,10,10,18,10,24,T,5,,159